Weather History for KDEC - July, 2014

Change the Weather History Date:

Tuesday, July 8, 2014

  Actual Average Record
Temperature  
Mean Temperature 75 °F 76 °F  
Max Temperature 83 °F 87 °F 93 °F (2001)
Min Temperature 66 °F 66 °F 57 °F (1999)
Degree Days  
Heating Degree Days 0 0  
Month to date heating degree days 0 0  
Since 1 June heating degree days 1 17  
Since 1 July heating degree days 0 0  
Cooling Degree Days 10 11  
Month to date cooling degree days 59 88  
Year to date cooling degree days 480 404  
Since 1 June cooling degree days 335 317  
Growing Degree Days 25 (Base 50)    
Moisture  
Dew Point 66 °F    
Average Humidity 70    
Maximum Humidity 93    
Minimum Humidity 47    
Precipitation  
Precipitation 0.28 in 0.11 in 0.69 in (2003)
Month to date precipitation 0.81 0.98  
Year to date precipitation 17.37 19.78  
Sea Level Pressure  
Sea Level Pressure 29.79 in    
Wind  
Wind Speed 11 mph (West)    
Max Wind Speed 21 mph    
Max Gust Speed 28 mph    
Visibility 9 miles    
Events Rain    
T = Trace of Precipitation, MM = Missing Value Source: NWS Daily Summary

Daily Weather History Graph

Daily Weather History Graph

Search for Another Location

Airport or City:

Trip Planner

Search our weather history database for the weather conditions in past years. The results will help you decide how hot, cold, wet, or windy it might be!

Date:

Astronomy

Jul. 08, 2014 Rise Set
Actual Time 5:34 AM CDT 8:26 PM CDT
Civil Twilight 5:02 AM CDT 8:58 PM CDT
Nautical Twilight 4:22 AM CDT 9:38 PM CDT
Astronomical Twilight 3:35 AM CDT 10:25 PM CDT
Moon 4:33 PM CDT (7/8) 2:07 AM CDT (7/8)
Length of Visible Light 15h 55m
Length of Day
14h 51m
Waxing Gibbous, 81% of the Moon is Illuminated
Jul 8
Waxing Gibbous
Jul 12
Full
Jul 18
Last Quarter
Jul 26
New
Aug 3
First Quarter

Hourly Weather History & Observations

Time (CDT) Temp. Heat Index Dew Point Humidity Pressure Visibility Wind Dir Wind Speed Gust Speed Precip Events Conditions
12:54 AM 73.0 °F - 69.1 °F 87% 29.71 in 10.0 mi SSW 12.7 mph - N/A   Clear
1:54 AM 73.9 °F - 69.1 °F 85% 29.70 in 10.0 mi South 10.4 mph - N/A   Clear
2:54 AM 73.0 °F - 70.0 °F 90% 29.71 in 4.0 mi SW 11.5 mph - 0.07 in Rain Rain
3:08 AM 73.0 °F - 71.1 °F 93% 29.74 in 4.0 mi WSW 8.1 mph - 0.06 in Rain Rain
3:54 AM 73.0 °F - 71.1 °F 93% 29.70 in 5.0 mi WSW 4.6 mph - 0.15 in Rain Rain
4:25 AM 72.0 °F - 70.0 °F 93% 29.72 in 8.0 mi WSW 16.1 mph 21.9 mph 0.03 in Rain Light Rain
4:43 AM 70.0 °F - 69.1 °F 97% 29.72 in 10.0 mi WNW 10.4 mph - 0.04 in Rain Light Rain
4:54 AM 71.1 °F - 69.1 °F 93% 29.68 in 6.0 mi West 3.5 mph - 0.05 in Rain Light Rain
5:05 AM 71.1 °F - 69.1 °F 93% 29.73 in 9.0 mi West 8.1 mph - 0.01 in Rain Light Rain
5:54 AM 69.1 °F - 64.0 °F 84% 29.73 in 10.0 mi West 13.8 mph - 0.01 in   Scattered Clouds
6:54 AM 68.0 °F - 64.9 °F 90% 29.75 in 10.0 mi WSW 12.7 mph - N/A   Clear
7:54 AM 69.1 °F - 64.9 °F 87% 29.76 in 10.0 mi West 12.7 mph 21.9 mph N/A   Mostly Cloudy
8:13 AM 70.0 °F - 66.0 °F 87% 29.79 in 10.0 mi West 11.5 mph - N/A   Overcast
8:54 AM 71.1 °F - 66.0 °F 84% 29.78 in 10.0 mi West 13.8 mph 24.2 mph N/A   Overcast
9:45 AM 72.0 °F - 66.0 °F 81% 29.81 in 10.0 mi West 11.5 mph 20.7 mph N/A   Overcast
9:54 AM 73.0 °F - 66.0 °F 79% 29.80 in 10.0 mi WNW 13.8 mph 21.9 mph N/A   Overcast
10:54 AM 75.9 °F - 66.9 °F 74% 29.81 in 10.0 mi West 13.8 mph - N/A   Mostly Cloudy
11:44 AM 79.0 °F - 66.9 °F 66% 29.84 in 10.0 mi West 12.7 mph 20.7 mph N/A   Mostly Cloudy
11:54 AM 79.0 °F - 66.0 °F 64% 29.83 in 10.0 mi West 13.8 mph - N/A   Scattered Clouds
12:54 PM 79.0 °F - 64.0 °F 60% 29.84 in 10.0 mi WNW 11.5 mph - N/A   Mostly Cloudy
1:54 PM 81.0 °F 82.5 °F 64.0 °F 56% 29.84 in 10.0 mi WNW 10.4 mph 19.6 mph N/A   Scattered Clouds
2:54 PM 80.1 °F 81.2 °F 62.1 °F 54% 29.83 in 10.0 mi WNW 10.4 mph - N/A   Mostly Cloudy
4:54 PM 82.0 °F 82.4 °F 60.1 °F 47% 29.84 in 10.0 mi WNW 13.8 mph 21.9 mph N/A   Partly Cloudy
5:54 PM 81.0 °F 81.6 °F 60.1 °F 49% 29.85 in 10.0 mi WNW 19.6 mph 25.3 mph N/A   Clear
6:54 PM 79.0 °F - 60.1 °F 52% 29.86 in 10.0 mi West 10.4 mph - N/A   Clear
7:54 PM 77.0 °F - 60.1 °F 56% 29.86 in 10.0 mi West 8.1 mph - N/A   Clear
8:54 PM 75.9 °F - 62.1 °F 62% 29.87 in 10.0 mi West 9.2 mph - N/A   Mostly Cloudy
10:54 PM 72.0 °F - 61.0 °F 68% 29.90 in 10.0 mi West 4.6 mph - N/A   Clear
11:54 PM 71.1 °F - 62.1 °F 73% 29.91 in 10.0 mi WSW 5.8 mph - N/A   Clear